Find Starlink 36898

NORAD ID: 68002 Int'l Des: 2026-039 Owner: SPXS Country: US Constellation: starlink operational
LEOCIRCULAR

Live Position

Loading 3D Globe...

About Starlink 36898

Description loading...

Upcoming Passes

Passes for default location (London). Set your location on the main map for personalized predictions.

Altitude History

Loading altitude history...

Two-Line Element Set

1 68002U 26039S 26106.24562322 .00010016 00000-0 37279-3 0 9996
2 68002 43.0009 197.1265 0002301 259.6333 100.4260 15.27597372 7448
Epoch: Apr 16, 2026 • Age: 6 hours

Current Status

Altitude 484.1 km
Velocity 7.62 km/s
Sub-Earth Point -8.11°S, 160.46°E
Launch Date Feb 27, 2026
Age 0.1 years
Type internet

Technical Details

Classification Payload
Mass 575.00 kg
Dry Mass 530.00 kg
Total Mass 575.00 kg
Length 0.30 m
Diameter 4.10 m
Span 29.00 m
Shape Box + pan
Manufacturer SPXS
Bus Type Starlink V2MO
Phase Status In Orbit
Owner/State SPXS/US

Most Searched